Simultaneous Nadir Overpasses (SNOs) Predictions

Prediction of SNOs between METOP-A and NOAA-19 Satellite Orbit:

Table of predicted SNOs for the next 14.0 days since TLE Epoch: 1/23/2016
Index Date (METOP-A) Time (METOP-A) Lat,Lon (METOP-A) SZA (METOP-A ) Date (NOAA-19) Time (NOAA-19) Lat,Lon (NOAA-19) SZA (NOAA-19 ) Distance(km) Time Diff (sec)
1 01/23/2016 21:57:44 75.66,-150.59 95.03 01/23/2016 21:57:59 75.65,-150.63 95.01 2.19 15
2 01/23/2016 22:48:26 -75.62, 16.62 85.02 01/23/2016 22:49:00 -75.63, 16.65 85.02 1.60 34
3 01/23/2016 23:39:06 75.64,-175.99 94.99 01/23/2016 23:40:01 75.63,-176.10 94.98 3.14 55
4 01/24/2016 00:29:48 -75.60, -8.78 85.06 01/24/2016 00:31:02 -75.62, -8.82 85.05 2.21 74
5 02/03/2016 07:58:48 76.00, 60.24 92.59 02/03/2016 07:57:38 76.05, 58.30 92.69 52.39 70
6 02/03/2016 08:49:35 -75.74,-133.30 87.67 02/03/2016 08:48:30 -75.75,-133.39 87.65 2.94 65
7 02/03/2016 09:40:16 75.70, 33.92 92.29 02/03/2016 09:39:33 75.72, 33.94 92.32 2.60 43
8 02/03/2016 10:30:57 -75.72,-158.70 87.71 02/03/2016 10:30:31 -75.69,-158.71 87.73 2.64 26
9 02/03/2016 11:21:38 75.68, 8.51 92.25 02/03/2016 11:21:34 75.67, 8.62 92.24 3.41 4
10 02/03/2016 12:12:19 -75.70, 175.90 87.75 02/03/2016 12:12:33 -75.68, 175.82 87.76 2.68 14
11 02/03/2016 13:03:00 75.66, -16.89 92.21 02/03/2016 13:03:36 75.65, -16.84 92.20 1.44 36
12 02/03/2016 13:53:40 -75.68, 150.50 87.79 02/03/2016 13:54:34 -75.67, 150.35 87.80 4.00 54
13 02/03/2016 14:44:22 75.60, -42.44
